Latest Weather Observations for Trangie

IDN60801

Issued at 2:35 pm EDT Wednesday 26 November 2014 (issued every 30 minutes, with the page automatically refreshed every 10 minutes)

About weather observations | Map of weather stations | Latest weather observations for NSW | Other Formats
Station Details ID: 051049 Name: TRANGIE RESEARCH STATION AWS Lat: -31.99 Lon: 147.95 Height: 215.0 m
Data from the previous 72 hours. | See also: Recent months at Trangie
Date/Time
EDT
Temp
°C
App
Temp
°C
Dew
Point
Rel
Hum
%
Delta-T
°C
Wind Press
QNH
hPa
Press
MSL
hPa
Rain
since 9 am
mm
Dir
 
Spd
km/h
Gust
km/h
Spd
kts
Gust
kts
26/02:30pm 30.3 25.2 -2.2 12 15.1 SW 15 24 8 13 1016.2 1015.4 0.0
26/02:00pm 28.9 22.4 -2.3 13 14.3 WSW 22 32 12 17 1016.5 1015.7 0.0
26/01:30pm 28.2 22.7 -1.8 14 13.8 SSW 17 32 9 17 1017.0 1016.2 0.0
26/01:00pm 27.5 22.6 1.8 19 12.6 S 17 26 9 14 1017.4 1016.7 0.0
26/12:30pm 26.3 21.3 3.5 23 11.4 SSW 19 39 10 21 1017.7 1017.0 0.0
26/12:00pm 27.1 23.6 5.4 25 11.3 SW 13 22 7 12 1018.0 1017.3 0.0
26/11:30am 26.2 22.6 5.2 26 10.8 S 13 22 7 12 1018.2 1017.4 0.0
26/11:00am 26.2 22.6 6.8 29 10.3 S 15 24 8 13 1018.4 1017.6 0.0
26/10:30am 24.7 21.2 7.4 33 9.2 S 15 24 8 13 1018.6 1017.8 0.0
26/10:00am 23.5 21.1 10.2 43 7.4 SSE 13 22 7 12 1018.7 1017.9 0.0
26/09:30am 22.3 20.6 11.1 49 6.3 SSE 11 17 6 9 1019.0 1018.2 0.0
26/09:00am 21.5 19.2 10.6 50 6.0 SE 13 20 7 11 1019.1 1018.3 0.0
26/08:30am 20.4 17.8 9.3 49 6.0 SSE 13 20 7 11 1018.9 1018.1 0.0
26/08:00am 18.6 15.2 6.1 44 6.2 S 13 17 7 9 1018.8 1018.0 0.0
26/07:30am 16.9 14.2 5.5 47 5.6 SSE 9 15 5 8 1018.6 1017.8 0.0
26/07:00am 14.7 12.0 5.5 54 4.4 SSE 9 13 5 7 1018.5 1017.7 0.0
26/06:30am 12.8 10.0 5.0 59 3.6 SSE 9 13 5 7 1018.3 1017.5 0.0
26/06:00am 11.7 9.2 4.7 62 3.2 SSE 7 11 4 6 1018.2 1017.4 0.0
26/05:30am 11.7 9.2 4.7 62 3.2 SSE 7 11 4 6 1017.8 1017.1 0.0
26/05:00am 12.0 9.1 4.5 60 3.4 SSE 9 13 5 7 1017.7 1017.0 0.0
26/04:30am 13.0 10.0 4.2 55 4.0 SSE 9 17 5 9 1017.4 1016.7 0.0
26/04:00am 13.4 10.5 4.6 55 4.1 SSE 9 13 5 7 1017.2 1016.4 0.0
26/03:30am 14.3 11.0 4.3 51 4.7 S 11 17 6 9 1017.2 1016.4 0.0
26/03:00am 14.4 11.0 4.1 50 4.8 S 11 19 6 10 1017.2 1016.4 0.0
26/02:30am 14.4 10.6 3.8 49 4.9 S 13 17 7 9 1017.3 1016.5 0.0
26/02:00am 15.2 11.3 3.4 45 5.4 S 13 17 7 9 1017.6 1016.9 0.0
26/01:30am 15.4 11.8 3.2 44 5.6 S 11 15 6 8 1017.9 1017.2 0.0
26/01:00am 16.3 12.2 2.3 39 6.3 S 13 17 7 9 1018.2 1017.4 0.0
26/12:30am 17.0 13.3 2.2 37 6.7 S 11 15 6 8 1018.5 1017.7 0.0
26/12:00am 17.3 13.7 2.9 38 6.7 S 11 15 6 8 1018.4 1017.6 0.0
 
Date/Time
EDT
Temp
°C
App
Temp
°C
Dew
Point
Rel
Hum
%
Delta-T
°C
Wind Press
QNH
hPa
Press
MSL
hPa
Rain
since 9 am
mm
Dir
 
Spd
km/h
Gust
km/h
Spd
kts
Gust
kts
25/11:30pm 17.9 14.8 3.4 38 6.8 S 9 13 5 7 1018.6 1017.8 0.0
25/11:00pm 15.8 13.6 7.8 59 4.0 SSW 9 13 5 7 1018.7 1017.9 0.0
25/10:30pm 15.6 13.5 8.4 62 3.7 SW 9 11 5 6 1018.7 1017.9 0.0
25/10:00pm 16.9 15.8 4.9 45 5.8 CALM 0 0 0 0 1018.3 1017.5 0.0
25/09:30pm 17.8 16.8 5.4 44 6.1 CALM 0 0 0 0 1018.0 1017.3 0.0
25/09:00pm 20.1 18.0 3.8 34 7.8 SSE 4 7 2 4 1017.9 1017.2 0.0
25/08:30pm 21.1 18.2 1.4 27 9.1 S 6 9 3 5 1017.6 1016.9 0.0
25/08:00pm 23.0 19.4 0.8 23 10.3 S 9 11 5 6 1017.4 1016.7 0.0
25/07:30pm 24.8 20.3 -0.4 19 11.6 S 13 22 7 12 1017.0 1016.2 0.0
25/07:00pm 25.5 20.6 -0.5 18 12.0 S 15 20 8 11 1016.9 1016.1 0.0
25/06:30pm 25.6 20.3 -0.5 18 12.1 SSW 17 22 9 12 1016.6 1015.8 0.0
25/06:00pm 26.2 21.7 0.0 18 12.3 S 13 24 7 13 1016.6 1015.8 0.0
25/05:30pm 26.0 21.2 -0.1 18 12.2 S 15 24 8 13 1016.7 1015.9 0.0
25/05:00pm 26.7 22.3 0.4 18 12.5 SSW 13 24 7 13 1016.9 1016.1 0.0
25/04:30pm 25.4 20.8 -1.4 17 12.2 S 13 22 7 12 1017.1 1016.3 0.0
25/04:00pm 25.2 20.6 -0.8 18 11.9 SSW 13 30 7 16 1017.3 1016.5 0.0
25/03:30pm 25.6 20.2 -1.2 17 12.2 S 17 28 9 15 1017.6 1016.9 0.0
25/03:00pm 26.4 21.2 0.2 18 12.3 S 17 22 9 12 1017.7 1017.0 0.0
25/02:30pm 24.2 19.3 -0.2 20 11.2 S 15 32 8 17 1018.0 1017.3 0.0
25/02:00pm 24.1 19.7 2.9 25 10.3 S 15 26 8 14 1018.3 1017.5 0.0
25/01:30pm 22.8 17.7 2.8 27 9.6 SSE 19 32 10 17 1018.6 1017.8 0.0
25/01:00pm 22.5 19.0 5.4 33 8.6 SSE 13 22 7 12 1018.9 1018.1 0.0
25/12:30pm 20.9 17.1 5.7 37 7.6 S 15 24 8 13 1019.3 1018.5 0.0
25/12:00pm 20.1 15.9 5.7 39 7.2 S 17 24 9 13 1019.3 1018.5 0.0
25/11:30am 19.2 14.6 6.7 44 6.3 S 20 30 11 16 1019.3 1018.5 0.0
25/11:00am 19.1 14.7 6.6 44 6.3 S 19 32 10 17 1019.4 1018.6 0.0
25/10:30am 18.9 14.6 7.0 46 6.1 S 19 30 10 16 1019.1 1018.3 0.0
25/10:00am 18.5 14.8 9.3 55 4.9 S 19 26 10 14 1019.0 1018.2 0.0
25/09:30am 18.1 13.6 10.0 59 4.3 S 24 32 13 17 1018.6 1017.8 0.0
25/09:00am 18.1 15.1 13.8 76 2.5 S 22 33 12 18 1018.2 1017.4 5.2
25/08:30am 17.9 15.5 13.8 77 2.4 S 19 30 10 16 1017.8 1017.1 5.2
25/08:00am 17.6 14.1 13.5 77 2.3 SSW 24 32 13 17 1017.1 1016.3 5.2
25/07:30am 17.9 15.1 14.2 79 2.1 SSW 22 32 12 17 1016.7 1015.9 5.2
25/07:00am 19.0 17.0 16.4 85 1.6 SSW 22 33 12 18 1015.9 1015.1 5.2
25/06:30am 19.3 17.0 16.7 85 1.6 SSW 24 35 13 19 1015.2 1014.4 5.2
25/06:00am 19.7 19.3 18.0 90 1.1 S 17 26 9 14 1014.4 1013.6 5.2
25/05:30am 19.9 19.8 17.9 88 1.2 S 15 22 8 12 1013.9 1013.1 5.2
25/05:00am 19.8 20.6 19.0 95 0.5 SSW 13 20 7 11 1013.6 1012.8 5.2
25/04:30am 19.6 21.5 18.9 96 0.4 SSW 7 9 4 5 1013.7 1012.9 5.2
25/04:00am 19.2 21.3 18.9 98 0.2 SSE 6 7 3 4 1013.1 1012.3 5.2
25/03:30am 19.1 21.0 18.6 97 0.3 ESE 6 9 3 5 1013.0 1012.2 5.2
25/03:00am 19.4 20.6 19.1 98 0.2 ENE 11 15 6 8 1012.8 1012.0 5.0
25/02:30am 19.5 21.6 19.3 99 0.1 E 7 13 4 7 1012.9 1012.1 4.8
25/02:00am 19.3 19.7 19.0 98 0.2 S 15 22 8 12 1013.8 1013.0 4.4
25/01:31am 20.5 18.6 19.3 93 0.8 SW 28 48 15 26 1014.4 1013.6 3.4
25/01:30am 20.9 19.6 19.9 94 0.6 SW 26 46 14 25 1014.4 1013.6 3.2
25/01:00am 20.8 23.5 19.5 92 0.8 NNE 4 9 2 5 1013.3 1012.4 2.8
25/12:30am 20.9 23.9 19.2 90 1.1 S 2 7 1 4 1013.8 1013.0 1.8
25/12:00am 21.0 23.0 19.1 89 1.2 SE 7 11 4 6 1013.7 1012.9 1.4
 
Date/Time
EDT
Temp
°C
App
Temp
°C
Dew
Point
Rel
Hum
%
Delta-T
°C
Wind Press
QNH
hPa
Press
MSL
hPa
Rain
since 9 am
mm
Dir
 
Spd
km/h
Gust
km/h
Spd
kts
Gust
kts
24/11:30pm 23.4 23.2 19.8 80 2.3 WSW 20 30 11 16 1013.8 1013.0 0.4
24/11:00pm 24.2 24.7 18.4 70 3.7 N 13 19 7 10 1012.5 1011.7 0.2
24/10:30pm 27.4 27.1 16.4 51 6.9 N 13 20 7 11 1012.2 1011.4 0.0
24/10:00pm 29.6 28.5 14.2 39 9.4 NW 13 19 7 10 1012.1 1011.3 0.0
24/09:30pm 29.0 28.1 14.8 42 8.7 W 13 17 7 9 1011.5 1010.7 0.0
24/09:00pm 28.7 28.7 14.1 40 8.8 WNW 7 11 4 6 1010.9 1010.1 0.0
24/08:30pm 28.9 28.6 14.3 40 8.9 W 9 13 5 7 1010.6 1009.8 0.0
24/08:00pm 29.8 28.4 13.5 36 9.8 WNW 13 19 7 10 1010.3 1009.5 0.0
24/07:30pm 30.0 26.5 13.3 36 10.0 W 24 28 13 15 1009.9 1009.1 0.0
24/07:00pm 30.4 26.5 13.2 35 10.4 W 26 32 14 17 1009.0 1008.1 0.0
24/06:30pm 31.3 27.3 13.1 33 11.0 W 26 35 14 19 1008.3 1007.5 0.0
24/06:00pm 32.1 27.5 12.3 29 11.8 W 28 37 15 20 1008.0 1007.2 0.0
24/05:30pm 32.7 27.3 12.3 28 12.2 WSW 32 44 17 24 1007.9 1007.1 0.0
24/05:00pm 33.2 25.9 12.8 29 12.3 WSW 43 63 23 34 1008.2 1007.4 0.0
24/04:56pm 33.3 25.9 12.9 29 12.3 WSW 44 63 24 34 1008.3 1007.5 0.0
24/04:53pm 33.4 24.7 12.4 28 12.6 W 50 63 27 34 1008.2 1007.4 0.0
24/04:30pm 34.4 28.0 12.1 26 13.4 WNW 37 61 20 33 1008.0 1007.2 0.0
24/04:28pm 34.3 28.8 12.0 25 13.4 WNW 32 57 17 31 1008.1 1007.3 0.0
24/04:00pm 32.1 24.9 13.8 33 11.2 W 44 59 24 32 1009.0 1008.1 0.0
24/03:30pm 35.7 28.0 12.0 24 14.3 W 44 67 24 36 1008.7 1007.8 0.0
24/03:29pm 35.9 28.2 11.5 23 14.6 W 43 65 23 35 1008.8 1007.9 0.0
24/03:19pm 36.4 31.7 11.9 23 14.8 WNW 28 46 15 25 1008.9 1008.0 0.0
24/03:00pm 36.4 30.2 11.3 22 15.0 W 35 48 19 26 1008.9 1008.0 0.0
24/02:30pm 36.4 30.7 11.3 22 15.0 W 32 41 17 22 1009.2 1008.3 0.0
24/02:00pm 36.0 30.6 10.9 22 14.9 WNW 30 41 16 22 1009.6 1008.8 0.0
24/01:33pm 36.0 30.2 10.9 22 14.9 WNW 32 50 17 27 1009.5 1008.7 0.0
24/01:30pm 36.4 30.7 11.3 22 15.0 WNW 32 46 17 25 1009.5 1008.7 0.0
24/01:17pm 37.4 32.1 11.4 21 15.6 NW 30 50 16 27 1009.5 1008.7 0.0
24/01:00pm 36.1 31.3 13.0 25 14.2 NW 30 43 16 23 1009.8 1009.0 0.0
24/12:30pm 35.2 31.7 13.4 27 13.4 NNW 24 33 13 18 1010.2 1009.4 0.0
24/12:00pm 34.6 30.0 13.4 28 13.0 NNW 30 43 16 23 1010.5 1009.7 0.0
24/11:30am 34.1 29.1 13.5 28 12.6 N 32 43 17 23 1010.7 1009.9 0.0
24/11:10am 33.9 29.7 13.4 29 12.5 N 28 46 15 25 1010.7 1009.9 0.0
24/11:00am 34.3 30.2 13.7 29 12.7 N 28 43 15 23 1010.8 1010.0 0.0
24/10:50am 33.8 29.3 13.8 30 12.3 N 30 48 16 26 1010.8 1010.0 0.0
24/10:30am 33.6 28.7 13.6 29 12.2 N 32 46 17 25 1010.9 1010.1 0.0
24/10:03am 33.5 28.5 13.5 29 12.2 N 32 50 17 27 1010.9 1010.1 0.0
24/10:00am 33.4 28.8 13.5 30 12.2 N 30 43 16 23 1011.0 1010.2 0.0
24/09:30am 32.8 28.6 13.4 30 11.8 N 28 39 15 21 1011.4 1010.6 0.0
24/09:00am 32.0 28.8 13.2 31 11.4 N 22 37 12 20 1011.5 1010.7 0.0
24/08:30am 31.3 30.0 13.6 34 10.7 N 13 19 7 10 1011.6 1010.8 0.0
24/08:00am 29.4 28.8 13.6 38 9.5 ENE 9 17 5 9 1011.6 1010.8 0.0
24/07:30am 27.7 27.6 14.0 43 8.2 E 7 9 4 5 1011.6 1010.8 0.0
24/07:00am 26.8 26.8 14.2 46 7.6 SE 7 11 4 6 1011.7 1010.9 0.0
24/06:30am 25.8 25.8 13.6 47 7.2 SE 6 9 3 5 1011.7 1010.9 0.0
24/06:00am 26.6 26.6 13.7 45 7.7 E 6 9 3 5 1011.6 1010.8 0.0
24/05:30am 27.0 26.5 13.7 44 7.9 ENE 9 13 5 7 1011.4 1010.6 0.0
24/05:00am 27.6 26.9 13.2 41 8.6 E 9 13 5 7 1011.2 1010.4 0.0
24/04:30am 28.5 27.4 13.2 39 9.1 NE 11 15 6 8 1011.1 1010.3 0.0
24/04:00am 29.0 27.9 13.2 37 9.5 NNE 11 17 6 9 1011.2 1010.4 0.0
24/03:30am 29.3 28.3 12.3 35 10.0 NNE 9 15 5 8 1011.3 1010.5 0.0
24/03:00am 29.3 27.9 10.9 32 10.6 N 9 13 5 7 1011.4 1010.6 0.0
24/02:30am 29.7 28.1 10.3 30 11.1 NNE 9 13 5 7 1011.8 1011.0 0.0
24/02:00am 30.9 29.1 10.8 29 11.7 NE 11 22 6 12 1011.7 1010.9 0.0
24/01:30am 30.5 28.8 9.9 28 11.8 S 9 13 5 7 1012.3 1011.5 0.0
24/01:00am 29.9 28.2 9.9 29 11.4 SE 9 13 5 7 1012.7 1011.9 0.0
24/12:30am 29.6 28.0 10.2 30 11.1 S 9 11 5 6 1012.0 1011.2 0.0
24/12:00am 29.8 28.7 9.9 29 11.3 S 6 9 3 5 1012.2 1011.4 0.0
 
Date/Time
EDT
Temp
°C
App
Temp
°C
Dew
Point
Rel
Hum
%
Delta-T
°C
Wind Press
QNH
hPa
Press
MSL
hPa
Rain
since 9 am
mm
Dir
 
Spd
km/h
Gust
km/h
Spd
kts
Gust
kts
23/11:30pm 31.4 30.2 10.2 27 12.2 ENE 7 9 4 5 1012.6 1011.8 0.0
23/11:00pm 31.3 30.0 10.1 27 12.2 SE 7 13 4 7 1011.9 1011.1 0.0
23/10:30pm 30.6 29.1 10.5 29 11.6 SSE 9 11 5 6 1011.5 1010.7 0.0
23/10:00pm 31.5 29.7 10.8 28 12.1 SSW 11 15 6 8 1011.2 1010.4 0.0
23/09:30pm 31.3 29.0 10.6 28 12.0 SSW 13 19 7 10 1011.0 1010.2 0.0
23/09:00pm 33.2 31.5 11.1 26 13.0 S 11 17 6 9 1010.6 1009.8 0.0
23/08:30pm 33.8 32.3 10.4 24 13.7 S 9 13 5 7 1010.4 1009.6 0.0
23/08:00pm 35.4 32.7 9.0 20 15.2 S 13 19 7 10 1009.8 1009.0 0.0
23/07:30pm 36.0 31.9 8.7 19 15.7 S 20 39 11 21 1008.7 1007.8 0.0
23/07:00pm 37.7 33.1 6.6 15 17.5 S 20 33 11 18 1008.1 1007.3 0.0
23/06:30pm 38.9 32.2 5.5 13 18.5 SSW 30 37 16 20 1007.8 1007.0 0.0
23/06:00pm 42.1 37.3 2.7 9 21.4 W 17 24 9 13 1007.2 1006.4 0.0
23/05:30pm 42.0 35.1 2.6 9 21.3 W 28 39 15 21 1007.3 1006.5 0.0
23/05:00pm 41.6 34.3 2.3 9 21.1 W 30 41 16 22 1007.5 1006.7 0.0
23/04:30pm 43.5 37.7 2.1 8 22.4 W 22 30 12 16 1007.6 1006.8 0.0
23/04:00pm 44.3 37.4 2.7 8 22.8 WNW 28 41 15 22 1007.9 1007.1 0.0
23/03:30pm 43.2 36.9 3.5 9 21.8 NNW 26 39 14 21 1008.5 1007.6 0.0
23/03:00pm 44.0 36.3 2.4 8 22.7 NW 32 44 17 24 1008.9 1008.0 0.0

Other Formats:

Comma delimited format used in spreadsheet applications
http://www.bom.gov.au/fwo/IDN60801/IDN60801.95710.axf

JavaScript Object Notation format (JSON) in row-major order
http://www.bom.gov.au/fwo/IDN60801/IDN60801.95710.json